Terug naar catalogus

STARLINK-4198

ActiefCommunicatieVLEO
NORAD 52858·PAYLOAD·🇺🇸 United States

Gelanceerd Jun 17, 2022 vanaf Cape Canaveral Space Force Station

Loading…

Volgende Passages (komende 24 uur)

TLE

VersSource: CelesTrak SupGP

Epoch: Sep 15, 2026, 02:52 UTC

1 52858C 22062AE  26258.11993056 -.00042494  00000+0 -12895-2 0  2586
2 52858  53.1582 243.0217 0001252  93.7372 318.0367 15.33568175    17

Volg STARLINK-4198 in realtime met AllMySat

Download on the App Store